SCP
0 1 1 0 0 0 0 0 0 0 0 0 0 0 0 0 0 0 0 0 0 0 0 0 0 0 0 0 0 0 1 1 1 1 1 1 1 1
0 1 1 0 0 0 0 0 0 0 0 0 0 0 0 0 0 0 0 0 0 0 0 0 0 0 0 0 0 0 1 1 1 1 1 1 1 1
0 0 1 1 0 0 0 0 0 0 0 0 0 0 0 0 0 0 0 0 0 0 0 0 0 0 0 0 0 0 0 0 0 1 1 1 1 1
0 0 1 1 0 0 0 0 0 0 0 0 0 0 0 0 0 0 0 0 0 0 0 0 0 0 0 0 0 0 0 0 0 0 0 0 0 0
0 0 1 1 1 0 0 0 0 0 0 0 0 0 0 0 0 0 0 0 0 0 0 0 0 0 0 0 0 0 0 0 0 0 0 0 0 0
0 0 0 1 1 0 0 0 0 0 0 0 0 0 0 0 0 0 0 0 0 0 0 0 0 0 0 0 0 0 0 0 0 0 0 0 0 0
0 0 0 0 0 0 0 0 0 0 0 0 0 0 0 0 0 0 0 0 0 0 0 0 0 0 0 0 0 0 0 0 0 0 0 0 0 0
0 0 0 0 0 0 0 0 0 0 0 0 0 0 0 0 0 0 0 0 0 0 0 0 0 0 0 0 0 0 0 0 0 0 0 0 0 0
0 0 0 0 0 0 0 0 0 0 0 0 0 0 0 0 0 0 0 0 0 0 0 0 0 0 0 0 0 0 0 0 0 0 0 0 0 0
0 0 0 0 0 0 0 0 0 0 0 0 0 0 0 0 0 0 0 0 0 0 0 0 0 0 0 0 0 0 0 0 0 0 0 0 0 0
0 0 0 0 0 0 0 0 0 0 0 0 0 0 0 0 0 0 0 0 0 0 0 0 0 0 0 0 0 0 0 0 0 0 0 0 0 0
0 0 0 0 0 0 0 0 0 0 0 0 0 0 0 0 0 0 0 0 0 0 0 0 0 0 0 0 0 0 0 0 0 0 0 0 0 0
0 0 0 0 0 0 0 0 0 0 0 0 0 0 0 0 0 0 0 0 0 0 0 0 0 0 0 0 0 0 0 0 0 0 0 0 0 0
0 0 0 0 0 0 0 0 0 0 0 0 0 0 0 0 0 0 0 0 0 0 0 0 0 0 0 0 0 0 0 0 0 0 0 0 0 0
0 0 0 0 0 0 0 0 0 0 0 0 0 0 0 0 0 0 0 0 0 0 0 0 0 0 0 0 0 0 0 0 0 0 0 0 0 0
0 0 0 0 0 0 0 0 0 0 0 0 0 0 0 0 0 0 0 0 0 0 0 0 0 0 0 0 0 0 0 0 0 0 0 0 0 0
0 0 0 0 0 0 0 0 0 0 0 0 0 0 0 0 0 0 0 0 0 0 0 0 0 0 0 0 0 0 0 0 0 0 0 0 0 0
0 0 0 0 0 0 0 0 0 0 0 0 0 0 0 0 0 0 0 0 0 0 0 0 0 0 0 0 0 0 0 0 0 0 0 0 0 0
0 0 0 0 0 0 0 0 0 0 0 0 0 0 0 0 0 0 0 0 0 0 0 0 0 0 0 0 0 0 0 0 0 0 0 0 0 0
0 0 0 0 0 0 0 0 0 0 0 0 0 0 0 0 0 0 0 0 0 0 0 0 0 0 0 0 0 0 0 0 0 0 0 0 0 0
0 0 0 0 0 0 0 0 0 0 0 0 0 0 0 0 0 0 0 0 0 0 0 0 0 0 0 0 0 0 0 0 0 0 0 0 0 0
0 0 0 0 0 0 0 0 0 0 0 0 0 0 0 0 0 0 0 0 0 0 0 0 0 0 0 0 0 0 0 0 0 0 0 0 0 0
0 0 0 0 0 0 0 0 0 0 0 0 0 0 0 0 0 0 0 0 0 0 0 0 0 0 0 0 0 0 0 0 0 0 0 0 0 0
Wind_Speed
4 4 3 3 3 3 3 3 3 3 5 3 2 2 2 2 4 3 4 7 9 9 9 10 10 11 11 12 12 13 13 12 12 11 11 11 12 12
3 3 3 2 2 3 3 3 3 4 5 3 3 2 2 3 5 3 4 8 8 9 10 10 11 11 12 12 12 13 13 13 12 12 12 12 12 12
3 4 5 3 3 3 2 2 3 3 6 4 2 3 3 3 3 3 3 4 5 9 10 11 11 12 12 12 12 12 12 12 12 12 12 12 12 12
4 4 5 3 4 3 3 3 3 4 4 6 4 3 4 4 4 4 4 3 4 8 10 11 11 11 12 12 11 11 11 11 11 11 11 11 12 12
5 5 5 4 4 3 4 4 3 4 4 4 5 3 3 2 4 4 4 3 4 6 8 10 11 11 11 11 10 10 10 10 10 10 10 10 11 12
4 4 4 5 5 5 4 4 3 3 3 4 4 4 3 2 2 4 5 3 4 4 6 6 8 10 10 11 10 10 10 10 10 9 9 9 9 10
3 4 4 4 5 5 4 4 4 4 3 4 4 4 3 2 3 3 5 4 5 3 3 4 4 4 5 8 9 9 9 9 10 9 9 9 9 10
4 4 3 4 5 6 6 6 5 5 5 5 5 6 6 4 3 3 4 4 4 2 2 4 3 4 4 4 7 9 10 9 9 9 9 8 9 9
3 3 2 2 3 3 5 6 6 7 8 6 6 7 6 5 4 5 4 5 6 3 2 5 2 4 3 4 9 9 9 8 8 8 8 9 9 9
3 3 3 3 3 2 2 3 4 5 7 5 6 6 5 4 4 5 5 5 5 2 2 4 3 4 3 4 7 7 7 7 7 7 7 7 7 8
3 3 3 3 5 4 3 4 4 5 6 7 8 8 8 7 4 1 2 2 4 3 2 2 2 3 3 3 4 6 6 7 7 7 8 7 8 7
3 3 4 5 6 5 4 3 5 5 3 4 5 6 5 5 5 3 3 3 3 3 2 2 2 1 3 2 2 3 4 6 7 7 8 7 8 4
3 3 3 6 7 7 5 4 6 5 3 3 4 3 2 2 2 2 2 3 4 4 2 2 2 2 2 4 3 2 2 2 3 4 6 8 8 6
4 3 3 6 7 7 5 6 6 4 2 2 3 3 3 3 3 2 3 3 4 5 4 3 3 3 3 4 4 3 2 2 2 3 3 6 7 8
3 5 6 6 6 5 6 6 4 2 2 3 4 4 3 3 2 2 3 3 3 3 2 3 3 2 3 4 4 3 3 3 2 3 2 3 3 3
4 4 5 5 4 4 3 3 2 2 2 3 3 3 2 2 2 2 2 2 2 3 2 3 3 3 4 5 5 5 3 3 2 3 3 3 3 3
2 1 1 2 2 2 2 2 2 2 2 2 2 3 3 2 2 2 2 2 2 3 3 2 2 2 4 4 4 5 4 4 4 3 3 4 4 4
1 2 2 3 3 3 3 3 2 2 3 3 3 3 3 3 3 2 2 2 3 3 3 2 2 2 2 3 6 5 4 4 3 3 3 4 5 4
2 3 4 4 4 4 4 4 4 3 3 3 3 3 3 3 3 3 3 3 3 3 3 2 1 1 2 4 4 5 4 3 3 3 3 4 5 5
3 4 4 4 4 4 4 4 4 3 3 3 3 3 3 3 3 3 3 4 4 3 3 2 3 3 4 4 3 4 5 4 3 4 3 3 5 7
4 5 5 4 4 4 4 4 4 4 4 3 3 4 3 3 4 4 4 4 4 3 4 4 4 4 3 1 2 3 3 5 5 3 3 3 4 3
5 5 5 5 5 4 4 4 4 4 4 4 4 4 4 4 4 5 4 4 4 4 4 4 2 2 2 3 5 4 4 4 5 7 7 6 3 3
5 5 5 5 5 4 4 5 5 5 4 4 4 4 4 4 4 4 4 4 4 4 3 3 2 2 3 3 4 4 5 5 4 4 4 7 10 11
Wind_Direction
218 217 220 220 208 210 210 203 213 261 271 253 258 260 261 256 271 269 268 277 279 281 282 282 283 283 281 281 281 280 281 282 280 279 280 281 282 284
217 218 227 229 220 211 212 218 219 227 258 256 245 270 278 276 275 267 265 278 277 279 279 279 280 280 280 279 280 279 277 278 279 279 280 280 280 281
221 221 229 219 219 215 211 217 224 223 250 272 265 282 274 283 293 278 267 265 274 277 279 279 280 280 281 280 280 280 279 278 278 278 280 281 282 282
223 223 232 220 222 217 212 221 228 226 237 264 275 274 271 282 290 285 280 270 268 280 281 280 280 281 282 282 280 280 280 279 279 279 281 283 284 285
221 223 227 217 227 224 219 223 229 234 233 250 270 273 274 283 296 292 287 280 279 282 283 280 280 282 282 281 280 279 278 278 277 277 280 283 284 285
230 228 225 220 227 224 224 228 227 234 241 251 266 276 274 288 291 294 298 293 287 287 280 280 280 282 282 281 281 281 277 275 278 278 278 279 281 283
238 236 234 233 234 229 230 226 218 228 239 253 261 274 270 282 277 281 283 296 287 266 287 279 279 276 279 279 279 280 278 276 277 276 274 276 279 281
238 242 242 231 242 249 252 245 229 228 236 242 252 256 262 262 268 270 282 295 287 274 285 281 264 268 270 262 272 276 275 276 276 276 277 278 280 281
240 246 251 255 240 248 258 257 250 251 245 242 252 256 263 255 259 267 262 263 263 265 278 279 268 268 273 275 274 269 270 274 278 281 283 283 283 283
242 242 246 251 246 246 245 251 251 251 252 247 248 258 262 261 247 253 259 270 276 264 233 265 276 274 286 282 282 273 274 279 282 288 292 292 289 286
257 249 249 251 266 266 246 253 267 268 268 262 263 268 270 268 259 261 269 275 280 271 224 255 277 290 284 278 284 283 283 285 288 290 291 292 296 298
269 259 254 264 275 263 244 244 262 272 276 281 276 279 275 267 256 241 234 249 269 270 221 234 270 306 298 281 285 297 294 289 291 290 289 293 297 296
268 268 265 273 273 267 261 247 262 283 269 264 271 276 277 264 255 257 251 240 243 250 232 225 259 259 258 290 297 284 273 285 298 292 292 294 295 291
265 272 276 280 276 272 264 274 282 286 272 271 272 270 271 274 277 272 270 270 263 256 240 226 233 232 252 274 282 293 288 279 276 280 283 298 296 292
274 282 285 283 280 272 277 283 284 264 256 264 266 270 273 273 282 292 292 286 288 284 265 249 242 241 239 253 269 276 291 286 261 263 275 283 280 286
279 286 287 286 287 295 296 282 269 256 249 256 269 285 294 281 271 280 285 293 296 293 282 267 252 237 249 257 257 268 260 266 276 266 271 272 268 258
263 268 286 295 288 291 293 289 282 270 260 268 269 279 282 280 281 285 281 277 263 278 296 305 280 260 251 251 260 260 261 262 264 272 270 278 270 257
228 241 255 257 259 264 267 275 267 261 264 265 261 263 267 270 280 285 275 261 266 272 277 290 315 324 313 272 238 257 264 264 269 267 259 268 278 271
227 245 248 250 252 254 253 255 261 263 258 257 258 260 261 264 268 274 272 269 270 272 277 278 266 247 275 284 277 232 245 267 274 272 260 253 269 282
237 245 248 248 248 249 249 252 259 261 251 249 253 256 253 256 259 259 258 257 265 269 274 264 245 238 240 259 274 281 260 256 259 266 270 270 274 285
246 247 247 247 248 249 249 247 245 248 246 244 246 244 244 248 252 253 253 253 256 256 258 261 261 261 265 268 274 278 276 260 260 261 266 279 289 296
248 248 248 244 243 244 245 243 244 244 241 240 242 242 240 241 249 252 248 247 249 252 261 273 279 258 222 232 258 273 288 295 288 283 274 253 245 255
248 247 248 246 242 240 239 239 238 241 239 239 239 238 235 240 246 251 250 246 249 255 262 267 264 243 241 244 257 271 283 291 296 298 288 279 267 268